EW6538 Weather Reports


time (UTC)temp
C
wind
direction
speed
KPH
gust
KPH
rain 1hr
cm
rain 24hr
cm
rain mn
cm
humidity
%
barometer
mb
20260505100842 12 176 3.2 8.0 0.00 0.00 0.00 58 1005.6
20260505100358 12 174 1.6 4.8 0.00 0.00 0.00 58 1005.7
20260505095847 12 172 1.6 4.8 0.00 0.00 0.00 59 1005.7
20260505095354 12 172 0.0 3.2 0.00 0.00 0.00 59 1005.5
20260505094847 12 172 1.6 3.2 0.00 0.00 0.00 60 1005.5
20260505094346 12 172 1.6 4.8 0.00 0.00 0.00 59 1005.5
20260505093835 12 172 1.6 4.8 0.00 0.00 0.00 58 1005.5
20260505093342 13 172 3.2 6.4 0.00 0.00 0.00 57 1005.5
20260505092851 13 172 1.6 6.4 0.00 0.00 0.00 56 1005.6
20260505092352 13 62 0.0 1.6 0.00 0.00 0.00 54 1005.5
20260505091855 13 62 0.0 3.2 0.00 0.00 0.00 53 1005.5
20260505091342 13 62 1.6 4.8 0.00 0.00 0.00 52 1005.5
20260505090834 14 90 1.6 4.8 0.00 0.00 0.00 51 1005.5
20260505090356 14 89 3.2 9.7 0.00 0.00 0.00 50 1005.4
20260505090018 15 105 6.4 16.1 0.00 0.00 0.00 48 1005.4
20260505084336 16 126 9.7 19.3 0.00 0.00 0.00 46 1005.3
20260505083819 16 121 9.7 19.3 0.00 0.00 0.00 46 1005.1
20260505083327 15 123 8.0 16.1 0.00 0.00 0.00 48 1005.1
20260505082817 15 108 8.0 16.1 0.00 0.00 0.00 49 1005.1
20260505082328 15 117 8.0 12.9 0.00 0.00 0.00 50 1005.1
20260505081813 15 46 8.0 14.5 0.00 0.00 0.00 51 1005.1
20260505081314 15 82 6.4 14.5 0.00 0.00 0.00 50 1005.1
20260505080844 16 136 8.0 16.1 0.00 0.00 0.00 49 1005.1
20260505080456 16 98 9.7 19.3 0.00 0.00 0.00 47 1005.1
20260505074931 16 119 6.4 20.9 0.00 0.00 0.00 49 1005.0
20260505073828 15 118 3.2 9.7 0.00 0.00 0.00 51 1005.1
20260505073320 15 142 3.2 9.7 0.00 0.00 0.00 51 1005.0
20260505072825 15 136 3.2 11.3 0.00 0.00 0.00 52 1005.0
20260505072317 15 98 3.2 11.3 0.00 0.00 0.00 53 1005.0
20260505071820 14 91 3.2 9.7 0.00 0.00 0.00 54 1005.0
20260505071310 15 80 4.8 9.7 0.00 0.00 0.00 55 1004.9
20260505070812 15 109 4.8 9.7 0.00 0.00 0.00 56 1004.9
20260505070402 15 95 4.8 9.7 0.00 0.00 0.00 55 1004.9
20260505065324 15 97 8.0 16.1 0.00 0.00 0.00 53 1004.8
20260505064801 15 118 8.0 12.9 0.00 0.00 0.00 52 1004.6
20260505064322 15 123 8.0 12.9 0.00 0.00 0.00 53 1004.6
20260505063759 15 141 6.4 12.9 0.00 0.00 0.00 54 1004.5
20260505063317 15 121 4.8 11.3 0.00 0.00 0.00 55 1004.5
20260505062808 15 115 6.4 9.7 0.00 0.00 0.00 57 1004.5
20260505062306 15 108 8.0 11.3 0.00 0.00 0.00 56 1004.5
20260505061804 15 98 8.0 11.3 0.00 0.00 0.00 56 1004.5
20260505061302 16 97 8.0 12.9 0.00 0.00 0.00 54 1004.5
20260505060759 16 113 8.0 12.9 0.00 0.00 0.00 53 1004.5
20260505060306 16 89 8.0 12.9 0.00 0.00 0.00 52 1004.4
20260505055802 16 62 8.0 12.9 0.00 0.00 0.00 52 1004.4
20260505055304 16 82 6.4 12.9 0.00 0.00 0.00 53 1004.3
20260505054813 16 119 8.0 12.9 0.00 0.00 0.00 53 1004.3
20260505054317 16 119 9.7 20.9 0.00 0.00 0.00 53 1004.3
20260505053900 16 135 11.3 20.9 0.00 0.00 0.00 52 1004.2
20260505052806 16 96 11.3 14.5 0.00 0.00 0.00 51 1004.1
20260505052304 16 109 11.3 14.5 0.00 0.00 0.00 51 1004.1
20260505051807 16 104 11.3 14.5 0.00 0.00 0.00 51 1004.2
20260505051330 16 119 9.7 14.5 0.00 0.00 0.00 50 1004.2
20260505050830 16 115 6.4 12.9 0.00 0.00 0.00 51 1004.2
20260505050334 16 120 4.8 9.7 0.00 0.00 0.00 51 1004.1
20260505041322 17 84 1.6 4.8 0.00 0.00 0.00 46 1003.9
20260505040804 17 82 1.6 4.8 0.00 0.00 0.00 46 1003.9
20260505040312 17 74 0.0 3.2 0.00 0.00 0.00 45 1003.7
20260505035812 17 66 0.0 4.8 0.00 0.00 0.00 44 1003.7
20260505035308 18 65 0.0 4.8 0.00 0.00 0.00 44 1003.6
20260505034856 18 15 0.0 1.6 0.00 0.00 0.00 42 1003.6
20260505034414 18 15 0.0 1.6 0.00 0.00 0.00 42 1003.5
20260505034012 18 15 0.0 1.6 0.00 0.00 0.00 42 1003.4
20260505032833 18 15 3.2 6.4 0.00 0.00 0.00 41 1003.4
20260505032311 18 11 4.8 8.0 0.00 0.00 0.00 41 1003.3
20260505031811 19 13 4.8 8.0 0.00 0.00 0.00 41 1003.2
20260505031305 19 11 4.8 11.3 0.00 0.00 0.00 41 1003.2
20260505030817 19 26 3.2 11.3 0.00 0.00 0.00 41 1003.3
20260505030312 19 5 3.2 6.4 0.00 0.00 0.00 42 1003.3
20260505025813 19 9 4.8 11.3 0.00 0.00 0.00 43 1003.2
20260505025313 19 323 4.8 11.3 0.00 0.00 0.00 44 1003.2
20260505024810 19 303 4.8 8.0 0.00 0.00 0.00 45 1003.1
20260505024311 19 290 6.4 8.0 0.00 0.00 0.00 45 1003.1
20260505023806 20 294 6.4 8.0 0.00 0.00 0.00 44 1003.1
20260505023253 20 296 6.4 8.0 0.00 0.00 0.00 44 1003.1
20260505022800 20 290 6.4 8.0 0.00 0.00 0.00 43 1003.1
20260505022256 21 298 6.4 11.3 0.00 0.00 0.00 43 1003.0
20260505021805 21 297 8.0 14.5 0.00 0.00 0.00 42 1003.0
20260505021330 21 300 8.0 14.5 0.00 0.00 0.00 41 1003.0
20260505020755 21 300 8.0 14.5 0.00 0.00 0.00 41 1003.0
20260505020348 21 303 9.7 14.5 0.00 0.00 0.00 40 1003.0
20260505015255 21 298 11.3 17.7 0.00 0.00 0.00 41 1003.0
20260505014248 22 316 12.9 20.9 0.00 0.00 0.00 40 1003.0
20260505013734 22 316 12.9 20.9 0.00 0.00 0.00 40 1003.0
20260505013242 22 320 12.9 16.1 0.00 0.00 0.00 39 1003.0
20260505012725 22 313 11.3 16.1 0.00 0.00 0.00 39 1003.0
20260505012224 22 317 12.9 20.9 0.00 0.00 0.00 39 1003.1
20260505011734 22 311 14.5 20.9 0.00 0.00 0.00 39 1003.2
20260505011236 22 316 14.5 20.9 0.00 0.00 0.00 38 1003.2
20260505010746 23 327 17.7 25.7 0.00 0.00 0.00 38 1003.2
20260505010327 22 325 17.7 25.7 0.00 0.00 0.00 38 1003.2
20260505005222 23 327 16.1 22.5 0.00 0.00 0.00 38 1003.3
20260505004715 23 327 16.1 25.7 0.00 0.00 0.00 38 1003.3
20260505004226 23 320 16.1 25.7 0.00 0.00 0.00 37 1003.3
20260505003716 23 327 12.9 24.1 0.00 0.00 0.00 37 1003.3
20260505003224 23 344 14.5 20.9 0.00 0.00 0.00 37 1003.3
20260505002712 23 355 16.1 22.5 0.00 0.00 0.00 37 1003.4
20260505002216 23 355 16.1 22.5 0.00 0.00 0.00 35 1003.4
20260505001722 23 328 14.5 20.9 0.00 0.00 0.00 34 1003.4
20260505001216 23 5 14.5 20.9 0.00 0.00 0.00 35 1003.5
20260505000720 23 346 16.1 24.1 0.00 0.00 0.00 35 1003.5
20260505000239 23 333 16.1 24.1 0.00 0.00 0.00 32 1003.4
20260504235722 23 350 14.5 20.9 0.00 0.00 0.00 35 1003.4
20260504235234 23 15 17.7 25.7 0.00 0.00 0.00 31 1003.4
20260504234727 23 9 17.7 25.7 0.00 0.00 0.00 33 1003.4
20260504234344 23 335 16.1 22.5 0.00 0.00 0.00 32 1003.4
20260504233214 23 5 14.5 20.9 0.00 0.00 0.00 35 1003.4
20260504232717 23 350 17.7 22.5 0.00 0.00 0.00 33 1003.5
20260504232216 23 0 17.7 25.7 0.00 0.00 0.00 32 1003.5
20260504231739 23 0 17.7 25.7 0.00 0.00 0.00 33 1003.5
20260504231217 23 342 16.1 37.0 0.00 0.00 0.00 31 1003.5
20260504230733 23 22 16.1 37.0 0.00 0.00 0.00 34 1003.5
20260504230213 23 342 17.7 24.1 0.00 0.00 0.00 32 1003.5
20260504225731 23 0 17.7 24.1 0.00 0.00 0.00 35 1003.6
20260504225210 23 355 17.7 25.7 0.00 0.00 0.00 31 1003.5
20260504224722 23 355 17.7 25.7 0.00 0.00 0.00 33 1003.5
20260504224220 23 344 16.1 25.7 0.00 0.00 0.00 33 1003.5
20260504223716 23 307 16.1 20.9 0.00 0.00 0.00 35 1003.5
20260504223215 23 355 14.5 22.5 0.00 0.00 0.00 34 1003.6
20260504222711 23 0 14.5 22.5 0.00 0.00 0.00 36 1003.6
20260504222212 23 329 12.9 20.9 0.00 0.00 0.00 36 1003.7
20260504221721 23 336 12.9 20.9 0.00 0.00 0.00 36 1003.9
20260504221221 23 343 11.3 19.3 0.00 0.00 0.00 38 1004.0
20260504220715 23 313 14.5 24.1 0.00 0.00 0.00 40 1004.0
20260504220226 23 10 16.1 25.7 0.00 0.00 0.00 37 1004.0
20260504215714 23 317 14.5 25.7 0.00 0.00 0.00 39 1004.0
20260504215304 23 9 12.9 22.5 0.00 0.00 0.00 41 1004.1
20260504214222 22 351 12.9 22.5 0.00 0.00 0.00 39 1004.2
20260504213719 22 338 12.9 20.9 0.00 0.00 0.00 41 1004.3
20260504213216 22 298 12.9 20.9 0.00 0.00 0.00 42 1004.3
20260504212719 23 315 11.3 19.3 0.00 0.00 0.00 40 1004.3
20260504212213 23 315 12.9 20.9 0.00 0.00 0.00 40 1004.3
20260504211717 23 336 12.9 24.1 0.00 0.00 0.00 41 1004.3
20260504211220 22 355 11.3 24.1 0.00 0.00 0.00 44 1004.4
20260504210708 22 15 9.7 20.9 0.00 0.00 0.00 42 1004.4
20260504210215 22 0 11.3 24.1 0.00 0.00 0.00 42 1004.5
20260504205716 22 355 12.9 24.1 0.00 0.00 0.00 42 1004.5
20260504205218 22 339 12.9 24.1 0.00 0.00 0.00 42 1004.6
20260504204717 22 22 12.9 22.5 0.00 0.00 0.00 42 1004.6
20260504204208 22 339 12.9 22.5 0.00 0.00 0.00 45 1004.6
20260504203710 22 15 14.5 22.5 0.00 0.00 0.00 43 1004.6
20260504203208 22 323 14.5 20.9 0.00 0.00 0.00 42 1004.6
20260504202736 22 32 12.9 25.7 0.00 0.00 0.00 45 1004.6
20260504202222 22 55 11.3 25.7 0.00 0.00 0.00 43 1004.6
20260504201724 22 347 9.7 25.7 0.00 0.00 0.00 44 1004.7
20260504201207 22 30 8.0 25.7 0.00 0.00 0.00 44 1004.7
20260504200733 21 355 8.0 20.9 0.00 0.00 0.00 42 1004.6
20260504200211 21 333 11.3 20.9 0.00 0.00 0.00 42 1004.7
20260504195717 21 13 9.7 17.7 0.00 0.00 0.00 44 1004.7
20260504195210 21 17 8.0 14.5 0.00 0.00 0.00 42 1004.7
20260504194706 21 355 6.4 16.1 0.00 0.00 0.00 40 1004.7
20260504194212 21 0 4.8 16.1 0.00 0.00 0.00 42 1004.7
20260504193709 21 304 6.4 16.1 0.00 0.00 0.00 40 1004.8
20260504193238 21 5 8.0 17.7 0.00 0.00 0.00 43 1004.9
20260504192246 21 355 6.4 12.9 0.00 0.00 0.00 45 1004.8
20260504191223 21 32 8.0 19.3 0.00 0.00 0.00 42 1004.8
20260504190752 21 292 6.4 19.3 0.00 0.00 0.00 44 1004.8
20260504185657 20 44 6.4 14.5 0.00 0.00 0.00 46 1004.9
20260504185212 21 347 6.4 17.7 0.00 0.00 0.00 47 1004.9
20260504184703 21 350 6.4 17.7 0.00 0.00 0.00 47 1004.9
20260504184300 20 310 4.8 12.9 0.00 0.00 0.00 47 1004.9
20260504183244 20 53 3.2 9.7 0.00 0.00 0.00 48 1004.9
20260504182211 20 303 6.4 14.5 0.00 0.00 0.00 51 1005.0
20260504181821 20 303 4.8 12.9 0.00 0.00 0.00 50 1004.9
20260504180658 19 25 4.8 12.9 0.00 0.00 0.00 52 1005.0
20260504180148 18 321 4.8 11.3 0.00 0.00 0.00 52 1004.9
20260504175711 18 40 6.4 11.3 0.00 0.00 0.00 54 1004.9
20260504175242 18 10 8.0 12.9 0.00 0.00 0.00 53 1005.0
20260504174142 18 27 9.7 16.1 0.00 0.00 0.00 55 1004.9
20260504173645 19 15 8.0 16.1 0.00 0.00 0.00 53 1004.9
20260504173145 19 14 6.4 16.1 0.00 0.00 0.00 52 1004.9
20260504172642 19 19 4.8 9.7 0.00 0.00 0.00 50 1004.9
20260504172147 18 355 3.2 8.0 0.00 0.00 0.00 50 1004.9
20260504171640 18 19 3.2 8.0 0.00 0.00 0.00 51 1004.8
20260504171222 18 5 3.2 8.0 0.00 0.00 0.00 51 1004.9
20260504170749 18 12 3.2 8.0 0.00 0.00 0.00 53 1004.9
20260504160153 17 255 6.4 11.3 0.00 0.00 0.00 51 1005.0
20260504150629 16 251 4.8 14.5 0.00 0.00 0.00 52 1005.1
20260504150123 15 188 1.6 6.4 0.00 0.00 0.00 56 1005.3
20260504141130 13 170 11.3 19.3 0.00 0.00 0.00 61 1004.9
20260504140623 13 182 16.1 22.5 0.00 0.00 0.00 59 1004.8
20260504140130 13 190 16.1 22.5 0.00 0.00 0.00 60 1004.7
20260504130632 11 189 16.1 20.9 0.00 0.00 0.00 65 1004.6
20260504130208 11 0 14.5 20.9 0.00 0.00 0.00 64 1004.6
20260504120124 11 210 14.5 17.7 0.00 0.00 0.00 63 1004.8
20260504110606 12 0 14.5 17.7 0.00 0.00 0.00 57 1004.9
20260504110147 12 190 14.5 19.3 0.00 0.00 0.00 58 1005.0